Voltar ao catálogo

IRIDIUM 69

AtivoComunicaçõesPO
NORAD 25319·PAYLOAD·🇺🇸 United States

Lançado May 2, 1998 de Taiyuan Satellite Launch Center

Loading…

Próximas Passagens (próximas 24 horas)

TLE

AtualizadoSource: Space-Track

Época: Sep 14, 2026, 11:09 UTC

1 25319U 98026A   26257.46470092  .00000215  00000-0  60148-4 0  9990
2 25319  86.3910 263.3445 0002096  23.5945 336.5350 14.41445175488495

Acompanhe IRIDIUM 69 em tempo real com AllMySat

Download on the App Store